Location: Les Martinières
(47.2667°N, 1.4410°E)
Time: 00:25:42
(UTC+00:00)

NOSS 3-4 (A) - Pass Details

Date: 15 May 2026
Orbit: 769 x 1442 km, 63.4° (Epoch: 10 January)

Event Time Altitude Azimuth Distance (km) Brightness Sun altitude
Rises 20:39:38 0° 320° (NW) 3,640 8.7 -11.1°
Reaches altitude 10° 20:42:04 10° 324° (NW) 2,778 7.4 -11.4°
Maximum altitude 20:48:38 63° 45° (NE) 1,250 4.1 -12.1°
Enters shadow 20:55:06 15° 124° (SE) 2,822 5.3 -12.9°
